Wind_Speed
21 21 27 30 28 28 32 27 25 24 22 22 21 20 17 17 18 18 18 20 20 19 19 19 18 17 16 16 17 17 16 15 15 15 15 14 14 14 13 13 13 12 12
23 21 24 31 32 32 35 28 27 24 22 22 20 19 17 17 19 18 17 19 19 18 18 19 18 17 16 15 16 17 17 15 14 14 14 13 13 12 12 11 11 11 11
28 29 27 31 31 35 37 26 25 21 20 19 18 19 18 18 21 18 18 17 18 17 16 16 17 17 16 15 15 16 17 16 14 14 14 13 13 12 11 12 11 11 11
32 28 31 31 34 38 37 27 26 23 21 20 18 17 17 17 18 19 18 18 17 16 17 17 18 18 18 16 15 15 15 15 15 15 14 13 12 12 12 12 11 11 11
32 32 31 32 36 39 37 32 25 24 22 20 17 17 17 17 17 17 18 18 17 17 16 18 18 17 17 16 16 15 14 14 15 15 14 15 14 14 13 13 12 13 12
35 34 33 36 38 37 33 32 28 22 22 22 17 14 12 13 14 15 16 17 17 18 17 16 17 16 17 17 16 15 15 14 15 15 15 16 16 16 16 15 15 15 15
33 38 33 38 39 38 35 35 29 27 20 21 18 11 9 10 12 13 15 16 17 19 19 19 18 17 18 20 19 17 16 16 16 16 17 18 18 19 19 18 19 19 18
32 36 31 39 41 36 34 36 32 25 20 25 14 17 5 5 10 14 15 18 18 18 18 20 21 20 18 18 20 22 20 19 20 21 21 21 21 21 22 22 22 22 22
32 30 40 39 39 35 35 37 37 30 22 24 19 10 4 5 11 11 17 18 18 19 20 22 23 26 23 22 21 23 24 22 23 25 26 27 27 26 26 24 23 23 23
27 33 38 37 35 32 32 36 35 31 25 24 18 10 11 12 5 5 12 20 19 21 22 22 24 26 24 24 25 26 26 27 27 28 29 30 31 34 34 32 31 30 30
20 25 33 31 31 32 32 35 34 31 28 26 21 15 9 8 8 3 4 12 19 24 25 26 24 25 26 27 27 29 30 30 31 32 34 35 35 36 37 37 37 38 36
23 22 24 26 26 27 30 36 38 36 32 28 28 24 19 10 8 5 2 8 18 18 28 26 31 33 33 31 32 32 32 34 34 36 37 38 39 40 41 42 42 43 43
18 23 24 28 28 25 27 31 33 34 34 33 34 30 29 30 20 14 11 8 9 17 16 32 31 32 32 30 33 26 23 26 33 35 39 40 41 42 43 44 44 45 46
15 23 27 28 30 32 32 32 31 31 34 33 31 31 31 31 25 26 16 12 5 10 16 12 27 35 29 26 27 24 26 29 31 35 37 37 40 42 42 43 45 46 47
14 18 25 31 35 33 33 31 30 28 30 31 29 28 28 30 26 24 28 22 8 6 8 12 14 30 29 28 31 27 26 27 30 36 39 38 40 40 41 44 45 47 48
12 14 20 26 31 33 33 36 36 28 29 30 30 28 28 25 24 29 28 27 28 15 10 20 21 26 27 29 31 34 38 41 41 40 43 44 46 45 46 46 45 46 47
12 12 17 22 26 34 35 32 31 32 31 31 28 31 31 32 33 32 34 32 30 29 22 28 30 28 30 34 36 40 43 47 51 50 42 43 45 49 50 48 48 50 51
13 14 15 18 22 28 32 34 35 33 36 35 37 34 35 31 33 38 32 30 30 34 30 27 34 32 34 38 44 43 42 45 47 52 52 51 53 55 56 54 52 53 52
13 13 15 17 18 20 25 29 30 31 33 34 33 33 35 32 30 30 32 31 31 33 31 29 33 35 34 33 34 37 38 37 38 45 51 53 55 54 55 56 56 55 54
12 14 15 17 17 16 18 21 28 30 31 33 33 34 35 35 35 32 31 33 33 31 31 30 31 33 34 37 35 33 34 35 38 37 40 44 45 49 50 50 50 49 49
11 12 14 15 17 19 24 27 27 29 31 31 32 33 34 35 37 37 33 33 32 32 31 30 30 31 32 31 32 34 33 35 36 37 38 36 37 38 40 44 47 49 48
5 9 13 16 18 16 21 26 29 26 28 29 30 31 33 35 40 41 43 46 42 33 32 31 31 29 33 36 37 36 34 30 15 31 37 36 33 31 27 28 30 33 32
6 8 9 6 9 2 4 15 26 29 24 21 25 25 24 23 27 31 34 42 48 51 52 41 33 31 26 19 20 25 30 35 34 25 23 17 10 5 6 6 9 10 11
15 15 14 13 11 15 10 7 8 17 14 8 5 6 7 10 12 14 16 16 13 14 16 18 12 4 5 11 18 22 19 15 17 11 11 5 9 13 11 12 11 9 9
21 24 23 22 21 23 18 8 5 4 10 15 17 18 13 12 10 10 8 6 6 14 21 19 19 17 16 9 4 5 8 10 3 5 12 1 4 9 15 16 16 14 14
23 24 29 30 27 31 27 19 14 15 20 21 22 23 26 22 17 11 12 16 23 16 18 18 20 22 25 28 26 22 16 12 7 6 16 6 6 3 3 10 12 11 12
Wind_Direction
196 194 195 187 188 176 180 170 170 169 168 170 170 173 167 168 162 163 166 167 170 166 162 159 159 162 165 165 161 157 158 157 158 158 157 157 158 157 155 153 152 151 146
209 195 187 187 188 188 182 174 172 173 170 172 171 173 172 171 171 167 164 172 175 173 169 163 165 167 174 174 171 164 165 167 169 166 170 169 168 168 167 165 164 162 159
203 194 189 186 184 189 186 169 171 172 170 169 172 173 172 174 177 174 168 169 175 180 178 175 172 174 178 183 184 179 173 174 178 180 182 183 179 182 183 180 181 179 175
201 191 184 182 184 188 186 174 173 173 171 171 172 176 173 176 179 184 175 173 180 183 187 184 187 185 183 189 197 194 184 183 188 191 191 195 194 196 197 195 195 199 195
207 202 189 188 189 184 183 175 173 175 169 173 173 177 175 177 184 189 183 182 185 186 190 194 197 198 197 196 201 204 199 196 200 203 201 202 207 210 209 213 208 213 213
213 204 189 191 186 182 174 174 171 174 173 174 171 169 182 183 188 195 195 190 196 196 197 195 198 205 208 207 210 212 212 211 212 212 214 216 216 220 223 222 223 224 229
223 208 188 197 191 187 178 177 170 162 167 170 157 150 175 184 196 196 202 206 204 206 204 203 201 203 211 217 217 216 219 222 223 224 226 227 227 229 230 231 232 233 235
224 214 205 182 181 175 173 173 169 161 164 173 173 164 166 189 214 212 210 214 215 208 216 213 210 210 210 215 221 221 218 226 230 230 230 238 246 248 244 239 239 239 240
208 182 186 177 174 172 172 175 173 171 166 181 177 169 157 199 182 210 218 221 219 219 220 223 224 222 219 223 228 233 233 229 227 235 240 246 248 253 256 256 255 253 251
190 188 180 182 184 176 174 179 178 177 172 178 183 190 185 154 186 188 218 222 221 225 228 224 224 230 227 228 234 241 244 243 243 241 242 244 246 249 256 259 260 261 261
163 180 176 180 186 180 181 179 178 181 185 182 188 183 175 164 165 154 186 203 221 225 227 228 227 227 230 233 239 246 249 251 253 253 253 251 251 252 252 256 259 261 264
177 175 167 169 177 186 193 188 190 188 189 191 193 194 187 180 182 173 176 201 218 225 226 229 233 235 239 241 249 257 262 260 262 261 261 260 260 258 257 257 258 259 261
187 189 187 184 184 192 202 198 192 191 195 200 201 203 207 212 220 224 219 208 216 221 222 229 233 240 242 249 255 270 277 282 280 274 268 266 265 264 262 262 261 261 260
202 203 205 205 195 195 198 199 204 204 204 208 213 213 217 216 217 220 235 233 231 222 224 227 235 235 238 243 250 268 266 274 279 283 282 276 271 268 266 264 263 263 263
218 216 209 199 198 196 198 202 204 209 219 221 222 220 225 227 229 247 242 234 227 259 243 243 232 231 235 242 245 264 274 277 276 273 275 281 282 279 275 271 268 268 268
205 200 194 192 183 195 198 203 208 213 225 234 240 241 234 235 241 233 236 246 253 250 265 257 257 248 248 246 251 261 266 268 277 283 281 275 277 275 273 272 271 273 275
203 200 195 186 195 196 197 200 204 213 219 229 232 239 243 239 239 246 254 246 246 239 248 260 259 257 258 256 255 258 259 268 267 270 274 275 274 274 271 269 271 272 273
200 204 205 205 204 199 199 207 212 219 223 225 230 233 240 239 241 247 244 242 238 240 240 246 252 251 249 250 253 251 255 262 262 267 270 274 274 272 271 274 276 275 273
207 204 203 204 207 209 215 213 215 217 218 223 229 228 232 235 238 236 235 239 240 243 242 243 253 256 254 249 255 255 256 260 259 263 269 269 270 272 271 273 274 275 275
215 215 218 220 219 216 219 222 229 229 229 232 234 235 239 238 235 237 238 239 242 244 245 244 247 253 255 261 258 256 259 256 259 260 259 259 264 269 273 273 272 273 272
227 227 223 224 227 230 236 233 230 232 231 233 237 239 240 241 245 244 244 245 244 243 245 246 249 252 254 253 249 253 253 256 258 257 261 261 262 264 266 270 270 270 271
219 236 244 246 243 214 225 232 234 238 236 236 239 241 244 248 252 255 253 251 251 249 246 247 250 249 249 250 254 253 255 259 262 260 261 259 256 260 260 253 248 251 255
74 66 51 60 118 172 307 247 240 240 242 249 253 253 253 252 252 251 254 254 254 255 257 260 265 264 274 272 264 264 256 255 257 267 263 266 291 298 342 351 352 296 278
62 60 57 54 52 24 11 356 312 265 262 249 301 314 296 280 281 277 269 273 275 257 273 265 265 267 327 312 288 279 280 303 322 348 3 31 50 65 58 57 44 55 74
69 66 61 58 49 35 26 23 56 124 98 79 64 50 39 17 353 330 302 265 122 82 76 82 84 80 64 51 325 277 312 289 218 48 33 80 53 91 82 79 77 83 83
73 71 66 58 53 46 43 54 80 96 86 73 63 54 50 48 44 54 104 115 95 82 87 84 76 69 63 57 54 55 56 55 19 35 16 33 20 48 107 57 55 56 60
Height
788 791 795 797 802 804 810 819 824 829 833 837 841 845 848 852 855 858 861 863 866 868 870 871 875 877 881 883 883 884 887 888 890 892 893 893 895 896 896 897 898 899 899
785 789 791 795 800 804 810 818 823 829 833 837 841 845 850 853 857 859 862 865 867 870 871 872 875 878 882 884 885 884 886 888 891 891 894 894 895 896 897 898 899 899 900
781 786 790 793 797 803 808 816 823 828 833 837 842 845 849 854 857 860 862 865 869 872 873 874 876 879 882 884 886 885 885 887 890 891 893 894 894 896 897 897 898 899 899
779 782 785 791 795 800 806 814 821 827 831 837 842 847 850 854 858 861 861 865 869 871 873 874 877 879 881 884 887 888 886 886 889 891 892 894 895 895 896 896 897 899 899
775 779 781 787 791 797 803 812 819 824 829 836 842 847 849 853 858 861 861 864 867 870 873 874 877 879 881 883 886 888 887 887 889 891 891 892 893 895 894 896 895 897 897
770 774 774 781 787 794 801 809 815 823 828 835 842 847 851 854 857 860 862 863 866 868 871 873 875 878 880 882 885 886 887 887 889 889 891 891 891 893 893 892 893 894 895
765 768 767 776 782 789 796 805 813 819 828 835 842 847 853 853 856 858 861 864 864 867 868 869 872 875 877 879 881 883 885 886 887 888 889 889 890 890 890 889 890 891 892
758 760 765 768 776 785 793 801 808 816 824 830 835 842 849 854 855 856 858 861 863 863 865 867 868 869 872 875 877 878 879 882 884 885 885 886 886 886 886 886 886 887 887
749 754 759 767 773 781 789 796 803 809 818 827 831 834 842 842 849 853 855 858 859 860 861 863 864 864 865 868 871 873 873 875 877 879 880 880 881 881 882 882 882 882 882
750 753 757 763 770 779 786 793 800 807 813 821 828 829 832 834 839 847 851 853 854 856 858 857 858 860 860 861 863 865 867 869 870 872 874 875 876 876 876 876 876 876 876
754 755 757 763 770 777 784 792 798 804 810 816 821 827 829 832 835 838 841 846 849 848 849 850 852 852 853 855 856 857 859 861 863 865 867 868 869 870 869 869 869 869 868
756 759 761 764 770 777 782 789 793 800 805 812 816 820 823 827 830 832 835 837 838 841 841 844 844 843 845 847 849 851 853 854 856 857 858 859 860 860 861 861 861 860 860
754 758 762 765 770 775 782 788 793 797 802 808 813 816 819 821 825 827 830 832 833 834 835 835 836 838 838 839 841 842 843 844 846 847 849 850 850 851 851 851 851 851 850
754 757 761 765 769 773 779 784 791 796 800 805 809 813 815 817 820 824 827 830 830 830 829 828 829 831 831 832 834 835 837 837 838 836 838 839 839 840 840 840 840 840 840
753 755 758 761 766 771 778 782 786 791 797 802 805 809 811 813 817 818 824 825 826 825 823 824 825 824 824 825 827 828 829 831 833 833 831 830 829 829 828 828 828 828 828
751 755 756 760 763 768 775 779 784 790 794 797 800 803 807 809 809 817 819 820 821 821 822 821 820 820 819 819 820 821 821 821 822 821 819 818 818 818 817 816 816 815 815
750 753 756 759 762 767 771 777 781 787 790 795 798 799 801 805 807 809 811 812 812 815 815 813 814 813 812 812 811 811 811 809 808 808 809 807 806 805 805 804 803 803 802
749 752 755 759 762 765 768 773 778 781 784 788 790 793 794 797 798 799 801 802 803 804 805 804 803 804 801 800 799 797 798 796 795 795 796 796 793 792 791 790 789 788 787
747 750 753 756 759 763 766 769 772 776 777 779 782 784 786 789 790 791 792 793 794 795 796 797 793 794 793 793 791 788 786 786 786 782 780 778 777 777 776 776 775 773 773
744 746 749 752 755 759 762 765 767 769 772 774 775 776 778 779 780 782 785 785 785 786 786 786 784 782 782 781 781 778 775 775 770 770 768 765 765 762 761 760 759 758 756
741 744 747 749 753 756 757 759 761 763 764 765 766 767 768 770 772 774 775 774 775 775 774 773 772 771 769 768 766 765 762 760 757 759 755 754 753 751 748 746 745 744 743
738 741 744 745 747 751 750 752 754 756 757 757 758 759 760 761 761 762 764 764 766 763 761 760 757 755 753 752 752 752 750 749 744 748 743 740 743 742 739 736 734 730 729
737 739 741 742 743 745 745 745 747 749 751 753 753 752 752 753 752 752 752 753 753 753 750 750 747 746 742 743 742 741 740 737 734 734 732 732 731 733 732 731 728 726 723
740 741 742 745 745 746 744 744 743 744 746 746 746 746 746 745 744 744 745 746 745 742 740 739 739 739 738 737 738 737 735 734 735 734 733 733 732 733 735 733 731 731 728
745 744 748 748 748 748 744 742 741 741 743 745 746 746 745 744 742 741 741 742 742 745 747 746 743 740 740 735 732 731 733 732 728 731 730 731 733 733 734 735 735 733 731
750 751 752 753 753 751 749 746 744 744 746 750 751 751 750 748 744 740 739 742 741 748 745 742 744 741 739 737 738 736 733 733 737 735 737 736 735 735 737 739 739 738 734